www.pogodaiklimat.ru

Погода и климат >> Архив погоды >> Венгрия >> Бекешчаба


ПОГОДА в Бекешчабе

  • Прогноз погоды в Бекешчабе
  • Монитор погоды в Бекешчабе

АРХИВ ПОГОДЫ в Бекешчабе

Время (UTC), дата Ветер
(напр.,м/с)
 
Видим.   Явления Облачность Т
(С)
Тd
(С)
f
(%)
Тe
(С)
Тes
(С)
Комфортность P
(гПа)
Po
(гПа)
Тmin
(С)
Tmax
(С)
R
(мм)
R24
(мм)
S
(см)
22 8.06 СЗ 3 н/о н/о +20.2 +18.3 89 +24 +24 комфорт 1020.7 1010.3
23 8.06 СЗ 2 н/о н/о +18.7 +17.2 91 +20 +20 1020.9 1010.4
00 9.06 СЗ 2 н/о н/о +18.1 +17.0 93 +19 +19 1020.8 1010.3
01 9.06 З 2 н/о н/о +17.0 +16.2 95 +17 +17 1020.7 1010.2
02 9.06 СЗ 2 н/о н/о +16.8 +16.0 95 +17 +17 1021.2 1010.6
03 9.06 СЗ 1 н/о н/о +16.5 +15.9 96 +17 +17 1021.5 1010.9
04 9.06 СЗ 2 н/о н/о +17.7 +17.1 96 +18 +18 1021.7 1011.2
05 9.06 СВ 4
{7}
н/о н/о +20.6 +18.2 86 +25 +25 комфорт 1021.9 1011.5
06 9.06 С 3 22 км 3/0
[Ci fib]
+22.3 +19.1 82 +28 +28 душно 1021.9 1011.5 +16.4
07 9.06 СВ 4 н/о н/о +23.3 +19.2 78 +30 +30 очень
душно
1022.2 1011.9
08 9.06 СВ 3 н/о н/о +24.6 +19.4 73 +30 +30 очень
душно
1022.2 1011.9
09 9.06 С 3 н/о н/о +26.0 +20.6 72 +32 +32 очень
душно
1021.9 1011.7
10 9.06 С 3 н/о н/о +27.0 +20.8 69 +34 +34 очень
душно
1021.6 1011.4
11 9.06 СВ 3 н/о н/о +27.7 +20.5 65 +34 +34 очень
душно
1021.2 1011.0
12 9.06 С 2 25 км 1/1 1000 м
[Cu med, cong]
+28.7 +19.9 59 +35 +35 очень
душно
1020.5 1010.4
13 9.06 С 2
{7}
н/о н/о +29.5 +20.6 59 +37 +37 очень
душно
1019.8 1009.7
14 9.06 С 3
{7}
н/о н/о +28.9 +19.0 55 +34 +34 очень
душно
1019.5 1009.4
15 9.06 С 4
{7}
н/о н/о +28.9 +19.2 56 +34 +34 очень
душно
1018.9 1008.8
16 9.06 СВ 3 н/о н/о +28.3 +18.4 55 +33 +33 очень
душно
1018.9 1008.8
17 9.06 СВ 2 н/о н/о +27.4 +19.2 61 +33 +33 очень
душно
1018.7 1008.5
18 9.06 С 1 30 км 1/0
[Ci sp]
+26.6 +19.2 64 +32 +32 очень
душно
1018.7 1008.5 +29.6
19 9.06 СВ 2 н/о н/о +23.1 +19.7 81 +30 +30 очень
душно
1018.9 1008.6
20 9.06 СВ 1 н/о н/о +21.1 +19.6 91 +26 +26 душно 1019.3 1008.9
21 9.06 СВ 3 н/о н/о +21.4 +19.0 86 +26 +26 душно 1019.5 1009.1
22 9.06 СВ 3 н/о н/о +21.6 +19.0 85 +26 +26 душно 1019.6 1009.2
23 9.06 СВ 2 н/о н/о +20.9 +19.0 89 +26 +26 душно 1019.2 1008.8
00 10.06 С 2 н/о н/о +19.7 +18.4 92 +23 +23 комфорт 1018.9 1008.5
01 10.06 СВ 3 н/о н/о +18.9 +18.4 97 +21 +21 комфорт 1018.7 1008.2
02 10.06 СВ 1 н/о н/о +18.1 +17.8 98 +19 +19 1018.3 1007.8
03 10.06 штиль 0 н/о н/о +17.4 +17.2 99 +17 +17 1018.5 1008.0
04 10.06 СЗ 1 н/о н/о +18.2 +18.0 99 +20 +20 1018.3 1007.8
05 10.06 В 2 н/о н/о +21.3 +19.4 89 +26 +26 душно 1018.2 1007.8
06 10.06 В 1 20 км 1/0
[Ci sp]
+23.4 +19.8 80 +30 +30 очень
душно
1018.2 1007.9 +16.8
07 10.06 В 2 н/о н/о +25.2 +19.3 70 +30 +30 душно 1017.9 1007.7
08 10.06 ЮВ 4 н/о н/о +26.4 +19.0 64 +32 +32 очень
душно
1017.6 1007.4
09 10.06 ЮВ 3 30 км 1/0
[Ci sp]
+27.7 +20.0 63 +34 +34 очень
душно
1017.3 1007.2
10 10.06 ЮВ 3 н/о н/о +28.3 +20.1 61 +35 +35 очень
душно
1016.7 1006.6
11 10.06 В 1 н/о н/о +29.1 +19.7 57 +35 +35 очень
душно
1016.3 1006.2
12 10.06 В 3 30 км 1/1 1300 м
[Cu med, cong Ci sp]
+29.5 +18.6 52 +35 +35 очень
душно
1015.8 1005.7
13 10.06 В 2 н/о н/о +30.0 +17.5 47 +34 +34 очень
душно
1015.1 1005.1
14 10.06 В 1 н/о н/о +30.2 +17.0 45 +34 +34 очень
душно
1014.6 1004.6
15 10.06 СВ 2 30 км 1/1 1500 м
[Cu med, cong Ci sp]
+29.7 +18.2 50 +34 +34 очень
душно
1014.0 1004.0
16 10.06 СВ 1 н/о н/о +29.8 +18.9 52 +35 +35 очень
душно
1013.5 1003.5
17 10.06 СВ 1 н/о н/о +28.8 +20.8 62 +36 +36 очень
душно
1013.5 1003.4
18 10.06 В 1 27 км 4/1 1500 м
[Sc diur, vesp Ac cuf Ci ing]
+27.5 +19.8 63 +33 +33 очень
душно
1013.6 1003.5 +31.1
19 10.06 СВ 1 н/о н/о +23.7 +19.6 78 +29 +29 душно 1013.8 1003.6
20 10.06 В 2 н/о н/о +23.6 +18.7 74 +28 +28 душно 1013.6 1003.4
21 10.06 ЮВ 4 22 км 4/0
[Ci sp]
+22.4 +19.2 82 +28 +28 душно 1013.9 1003.6
22 10.06 ЮВ 3 н/о н/о +20.7 +18.1 85 +25 +25 комфорт 1014.0 1003.7
23 10.06 В 3 н/о н/о +19.7 +17.5 87 +22 +22 комфорт 1014.1 1003.7
00 11.06 В 1 18 км 1/0
[Ci sp]
+20.1 +17.1 83 +24 +24 комфорт 1013.8 1003.4
01 11.06 В 2 н/о н/о +18.9 +16.1 84 +21 +21 комфорт 1013.4 1003.0
02 11.06 В 2 н/о н/о +17.9 +16.1 89 +18 +18 1013.4 1003.0
03 11.06 В 2 18 км 1/0
[Ac lent]
+17.8 +15.6 87 +18 +18 1013.4 1003.0
04 11.06 В 1 н/о н/о +19.3 +16.3 83 +22 +22 комфорт 1013.8 1003.4
05 11.06 ЮВ 1 н/о н/о +21.8 +17.0 74 +26 +26 душно 1014.0 1003.7
06 11.06 ЮВ 2 25 км 1/0
[Ac trans]
+24.1 +17.8 68 +28 +28 душно 1013.9 1003.7 +17.0
07 11.06 Ю 2 н/о н/о +25.4 +18.1 64 +30 +30 душно 1014.2 1004.0
08 11.06 ЮВ 2 н/о н/о +26.9 +18.2 59 +32 +32 очень
душно
1014.1 1004.0
09 11.06 ЮВ 1 н/о н/о +27.8 +18.2 56 +33 +33 очень
душно
1014.0 1003.9
10 11.06 СВ 1 н/о н/о +28.6 +18.4 54 +33 +33 очень
душно
1013.8 1003.7
11 11.06 В 1 н/о н/о +29.2 +18.9 54 +35 +35 очень
душно
1013.3 1003.3
12 11.06 В 4 30 км 1/1 1300 м
[Cu med, cong Ci sp]
+29.2 +18.9 54 +35 +35 очень
душно
1012.9 1002.9
13 11.06 В 3
{7}
н/о н/о +29.8 +18.6 51 +35 +35 очень
душно
1012.7 1002.7
14 11.06 В 2
{8}
н/о н/о +26.8 +20.6 69 +33 +33 очень
душно
1013.0 1002.9
15 11.06 В 2 н/о н/о +25.8 +19.2 67 +31 +31 очень
душно
1013.1 1002.9
16 11.06 штиль 0 н/о н/о +25.6 +19.7 70 +31 +31 очень
душно
1012.7 1002.5
17 11.06 В 2 н/о н/о +24.8 +19.9 74 +30 +30 душно 1012.7 1002.5
18 11.06 СВ 2 30 км {гроза} 9/1 600 м
[Sc diur, vesp Ac cuf Cs]
+23.7 +18.6 73 +28 +28 душно 1013.5 1003.3 +29.9 0.8
19 11.06 штиль 0 н/о н/о +22.2 +19.0 82 +28 +28 душно 1013.9 1003.6
20 11.06 штиль 0 н/о н/о +20.8 +19.1 90 +25 +25 комфорт 1014.4 1004.1
21 11.06 В 1 н/о н/о +20.7 +18.6 88 +26 +26 душно 1014.5 1004.2
22 11.06 штиль 0 н/о н/о +18.8 +18.3 97 +20 +20 1014.9 1004.5
23 11.06 В 2 н/о н/о +19.1 +18.3 95 +21 +21 комфорт 1015.0 1004.6
00 12.06 СВ 1 н/о н/о +18.9 +17.9 94 +21 +21 комфорт 1014.7 1004.3
01 12.06 штиль 0 н/о н/о +17.8 +17.2 96 +18 +18 1014.6 1004.2
02 12.06 ЮВ 1 н/о н/о +18.7 +17.7 94 +21 +21 комфорт 1014.5 1004.1
03 12.06 СВ 1 н/о н/о +17.3 +16.8 97 +18 +18 1014.6 1004.1
04 12.06 штиль 0 н/о н/о +19.5 +18.2 92 +22 +22 комфорт 1014.4 1004.0
05 12.06 В 1 н/о н/о +21.9 +19.1 84 +27 +27 душно 1014.3 1004.0
06 12.06 В 2 18 км 3/0
[Ac trans Ci sp]
+23.9 +19.0 74 +29 +29 душно 1014.5 1004.3 +16.7
07 12.06 В 3 н/о н/о +25.7 +19.8 70 +31 +31 очень
душно
1014.7 1004.5
08 12.06 В 3 н/о н/о +27.0 +19.6 64 +33 +33 очень
душно
1014.6 1004.5
09 12.06 В 2 н/о н/о +28.8 +19.4 57 +35 +35 очень
душно
1014.6 1004.5
10 12.06 ЮВ 1 н/о н/о +29.7 +18.5 51 +35 +35 очень
душно
1014.4 1004.4
11 12.06 ЮВ 1 н/о н/о +30.7 +19.4 51 +36 +36 очень
душно
1014.0 1004.0
12 12.06 З 1 30 км 1/1 1500 м
[Cu med, cong Ci ing]
+31.6 +18.9 47 +37 +37 очень
душно
1013.7 1003.7
13 12.06 ЮВ 1 н/о н/о +31.0 +16.6 42 +34 +34 душно 1013.4 1003.4
14 12.06 В 1 н/о н/о +30.9 +17.2 44 +35 +35 очень
душно
1013.3 1003.3
15 12.06 ЮВ 2 н/о н/о +30.8 +17.5 45 +35 +35 очень
душно
1012.8 1002.8
16 12.06 В 1 н/о н/о +30.3 +18.1 48 +35 +35 очень
душно
1012.7 1002.7
17 12.06 В 2 н/о н/о +29.2 +18.9 54 +35 +35 очень
душно
1013.0 1003.0
18 12.06 В 1 30 км 1/0
[Ci sp]
+27.0 +21.3 71 +34 +34 очень
душно
1013.0 1002.9 +32.0
19 12.06 В 3 н/о н/о +24.1 +18.7 72 +29 +29 душно 1013.2 1003.0
20 12.06 В 2 н/о н/о +23.1 +20.1 83 +30 +30 очень
душно
1013.9 1003.6
21 12.06 ЮВ 2 н/о н/о +23.2 +20.9 87 +31 +31 очень
душно
1013.8 1003.5
22 12.06 Ю 2 н/о н/о +22.4 +19.9 86 +29 +29 очень
душно
1014.0 1003.7
23 12.06 Ю 2 н/о н/о +21.8 +18.4 81 +27 +27 душно 1014.1 1003.8
00 13.06 ЮВ 2 н/о н/о +19.9 +18.6 92 +24 +24 комфорт 1014.0 1003.6
01 13.06 В 2 н/о н/о +19.7 +18.9 95 +23 +23 комфорт 1014.0 1003.6
02 13.06 В 1 н/о н/о +18.7 +18.0 96 +21 +21 комфорт 1013.9 1003.5
03 13.06 В 1 н/о н/о +18.3 +17.5 95 +20 +20 1014.1 1003.7
04 13.06 В 1 н/о н/о +19.6 +17.9 90 +23 +23 комфорт 1014.2 1003.8
05 13.06 В 1 н/о н/о +22.5 +19.5 83 +29 +29 очень
душно
1014.2 1003.9
06 13.06 В 2 25 км 1/0
[Ci fib]
+25.0 +20.3 75 +31 +31 очень
душно
1014.5 1004.3 +18.1
07 13.06 ЮВ 2 н/о н/о +27.5 +18.5 58 +32 +32 очень
душно
1014.7 1004.6
08 13.06 ЮВ 2 н/о н/о +29.0 +18.2 52 +34 +34 очень
душно
1014.7 1004.6
09 13.06 Ю 2 н/о н/о +30.2 +18.9 51 +36 +36 очень
душно
1014.7 1004.7
10 13.06 ЮВ 2 н/о н/о +30.6 +18.0 47 +35 +35 очень
душно
1014.6 1004.6
11 13.06 ЮВ 3 н/о н/о +31.1 +17.4 44 +35 +35 очень
душно
1014.2 1004.2
12 13.06 В 4 30 км 1/0
[Ci fib]
+31.4 +18.0 45 +36 +36 очень
душно
1013.7 1003.7
13 13.06 ЮВ 4 н/о н/о +31.8 +18.0 44 +36 +36 очень
душно
1013.6 1003.6
14 13.06 ЮВ 3 н/о н/о +31.8 +17.7 43 +36 +36 очень
душно
1013.3 1003.3
15 13.06 Ю 2 н/о н/о +31.9 +17.4 42 +36 +36 очень
душно
1013.3 1003.3
16 13.06 Ю 2 н/о н/о +31.4 +19.4 49 +37 +37 очень
душно
1013.2 1003.2
17 13.06 Ю 1 н/о н/о +30.7 +19.4 51 +36 +36 очень
душно
1013.1 1003.1
18 13.06 штиль 0 30 км 1/0
[Ci sp]
+28.0 +21.3 67 +35 +35 очень
душно
1013.1 1003.0 +32.3
19 13.06 Ю 1 н/о н/о +24.8 +21.1 80 +31 +31 очень
душно
1013.6 1003.4
20 13.06 Ю 1 н/о н/о +23.5 +21.0 86 +30 +30 очень
душно
1013.8 1003.6
21 13.06 ЮВ 1 н/о н/о +22.8 +20.1 85 +29 +29 очень
душно
1014.7 1004.4
22 13.06 штиль 0 н/о н/о +20.8 +19.8 94 +25 +25 комфорт 1014.9 1004.6
23 13.06 В 2 н/о н/о +21.6 +19.7 89 +27 +27 душно 1014.9 1004.6
00 14.06 ЮВ 2 н/о н/о +21.2 +19.7 91 +26 +26 душно 1015.3 1005.0
01 14.06 ЮВ 2 н/о н/о +21.2 +19.7 91 +26 +26 душно 1015.1 1004.8
02 14.06 Ю 3 н/о н/о +21.7 +18.9 84 +27 +27 душно 1014.9 1004.6
03 14.06 штиль 0 н/о н/о +20.2 +18.5 90 +23 +23 комфорт 1015.3 1004.9
04 14.06 ЮВ 1 н/о н/о +21.8 +19.4 86 +27 +27 душно 1015.5 1005.2
05 14.06 Ю 1 н/о н/о +24.0 +19.9 78 +29 +29 душно 1016.0 1005.8
06 14.06 Ю 2 25 км 1/0
[Ac cast]
+26.1 +20.4 71 +32 +32 очень
душно
1016.4 1006.2 +20.1
07 14.06 Ю 2 н/о н/о +27.6 +20.4 65 +34 +34 очень
душно
1016.6 1006.5
08 14.06 Ю 3 н/о н/о +28.6 +21.4 65 +36 +36 очень
душно
1016.9 1006.8
09 14.06 Ю 3 н/о н/о +29.5 +21.7 63 +38 +38 очень
душно
1017.1 1007.0
10 14.06 Ю 2 н/о н/о +30.8 +21.6 58 +39 +39 очень
душно
1017.1 1007.1
11 14.06 Ю 1 н/о н/о +32.0 +21.8 55 +41 +41 опасность
перегрева
1016.9 1006.9
12 14.06 ЮЗ 1 30 км 1/1 1380 м
[Cu med, cong Ci ing]
+32.4 +21.3 52 +40 +40 очень
душно
1016.4 1006.4
13 14.06 Ю 1 н/о н/о +30.8 +21.3 57 +39 +39 очень
душно
1016.4 1006.4
14 14.06 С 2 н/о н/о +28.8 +24.1 76 +40 +40 очень
душно
1016.4 1006.3
15 14.06 СВ 1 н/о н/о +29.7 +24.6 74 +42 +42 опасность
перегрева
1016.1 1006.0
16 14.06 ЮВ 2 н/о н/о +30.1 +23.0 66 +40 +40 очень
душно
1016.1 1006.1
17 14.06 ЮЗ 4
{12}
н/о н/о +25.1 +17.8 64 +29 +29 душно 1015.9 1005.7
18 14.06 С 1 25 км {гроза} 9/1 1200 м
[Cu med, cong Ac trans Cs]
+25.3 +19.2 69 +30 +30 душно 1016.2 1006.0 +32.6
19 14.06 С 1 н/о н/о +23.5 +19.6 79 +29 +29 душно 1016.9 1006.6
20 14.06 штиль 0 н/о н/о +22.7 +19.1 80 +29 +29 очень
душно
1017.0 1006.7
21 14.06 штиль 0 н/о н/о +21.0 +19.1 89 +25 +25 комфорт 1016.9 1006.5
22 14.06 штиль 0 н/о н/о +20.7 +19.0 90 +25 +25 комфорт 1017.0 1006.6
23 14.06 ЮВ 1 н/о н/о +20.7 +19.2 91 +26 +26 душно 1016.6 1006.2
00 15.06 Ю 1 н/о н/о +20.5 +18.6 89 +25 +25 комфорт 1016.2 1005.8
01 15.06 В 1 н/о н/о +19.0 +18.0 94 +22 +22 комфорт 1016.0 1005.6
02 15.06 В 1 н/о н/о +18.1 +17.5 96 +19 +19 1016.4 1005.9
03 15.06 штиль 0 н/о н/о +18.1 +17.8 98 +18 +18 1016.2 1005.7
04 15.06 штиль 0 н/о н/о +20.2 +19.2 94 +24 +24 комфорт 1016.0 1005.6
05 15.06 штиль 0 н/о н/о +23.5 +20.2 82 +29 +29 душно 1016.1 1005.8
06 15.06 штиль 0 22 км ясно +26.3 +20.8 72 +33 +33 очень
душно
1016.1 1005.9 +17.3
07 15.06 ЮЗ 1 н/о н/о +27.8 +20.9 66 +35 +35 очень
душно
1015.8 1005.7
08 15.06 Ю 1 н/о н/о +29.4 +20.6 59 +36 +36 очень
душно
1015.6 1005.5
09 15.06 Ю 2 н/о н/о +30.4 +21.5 59 +38 +38 очень
душно
1015.5 1005.5
10 15.06 Ю 1 н/о н/о +31.4 +22.1 58 +40 +40 очень
душно
1015.1 1005.1
11 15.06 ЮВ 1 н/о н/о +31.7 +22.4 58 +41 +41 опасность
перегрева
1014.6 1004.6
12 15.06 З 2 27 км 1/1 1300 м
[Cu med, cong]
+32.1 +21.9 55 +41 +41 опасность
перегрева
1013.8 1003.8
13 15.06 В 1 н/о н/о +32.6 +19.5 46 +38 +38 очень
душно
1013.3 1003.4
14 15.06 ЮЗ 2 н/о н/о +32.8 +20.3 48 +39 +39 очень
душно
1012.9 1003.0
15 15.06 штиль 0 н/о н/о +33.4 +19.5 44 +39 +39 очень
душно
1012.7 1002.8
16 15.06 ЮЗ 2 н/о н/о +31.8 +19.8 49 +38 +38 очень
душно
1012.6 1002.6
17 15.06 Ю 1 н/о н/о +31.2 +20.5 53 +38 +38 очень
душно
1012.5 1002.5
18 15.06 Ю 1 н/о н/о +29.6 +21.5 62 +38 +38 очень
душно
1012.4 1002.4 +33.5
19 15.06 Ю 2 н/о н/о +25.6 +19.3 68 +31 +31 очень
душно
1013.2 1003.0
20 15.06 Ю 2 н/о н/о +24.7 +19.1 71 +30 +30 очень
душно
1013.2 1003.0

 

Местоположение метеостанции Бекешчаба (Венгрия): широта 46.68 долгота 21.17 высота над уровнем моря 90 м.

В архиве по умолчанию представлена погода в Бекешчабе за последнюю неделю. Архивные данные за месяц целиком и за предыдущие месяцы, начиная с января 2011 года, Вы можете получить, выбрав интересующий диапазон дат из раскрывающегося списка и нажав кнопку "Ввод!".


*Определитесь, кто Вы:
робот инопланетянин человек

Внимание! Время в таблицах - всемирное. Для получения местного времени необходимо прибавить поправку, которая равна 1 ч.

Смотрите также архив погоды в соседних городах и на ближайших метеорологических станциях:

Погода в Кишинеу-Криш (Румыния) (32 км)
Погода в Шири (Румыния) (60 км)
Погода в Араде (Румыния) (63 км)
Погода в Орадя (Румыния) (68 км)
Погода в Холоде (Румыния) (73 км)
Погода в Думбравита де Кодру (Румыния) (77 км)
Погода в Сынниколау-Маре (Румыния) (80 км)
Погода в Сольноке (Венгрия) (87 км)
Погода в Дебрецене (Венгрия) (95 км)
Погода в Сегеде (Венгрия) (95 км)

Пояснения к столбцам:

Ветер - указаны скорость ветра в м/с - средняя за 10 мин, порывы в срок и между сроками (в фигурных скобках) и направление, откуда дует ветер: С - северный, СВ - северо-восточный, В - восточный, ЮВ - юго-восточный, Ю - южный, ЮЗ - юго-западный, З - западный, СЗ - северо-западный.
Видимость - горизонтальная дальность видимости в метрах или километрах. При видимости от 1 до 10 км при отсутствии осадков обычно наблюдается дымка, при ухудшении видимости до 1 км и менее - туман. В сухую погоду видимость может ухудшаться дымом, пылью или мглою.
Явления - указаны атмосферные явления, наблюдавшиеся в срок или в последний час перед сроком; фигурными скобками обозначены явления, наблюдавшиеся между сроками (за 1-3 часа до срока); квадратными скобками обозначены град или гололедные отложения с указанием их диаметра в мм.
Облачность - указаны через наклонную черту общая и нижняя облачность в баллах и высота нижней границы облаков в метрах; квадратными скобками обозначены формы облаков: Ci - перистые, Cs - перисто-слоистые, Cc - перисто-кучевые, Ac - высококучевые, As - высокослоистые, Sc - слоисто-кучевые, Ns - слоисто-дождевые, Cu - кучевые, Cb - кучево-дождевые. Подробнее классификацию облаков см. в Атласе облаков (PDF).
T - Температура воздуха - температура, измеренная на высоте 2 м над землей.
Td - Температура точки росы - температура, при понижении до которой содержащийся в воздухе водяной пар достигнет насыщения.
f - Относительная влажность воздуха - влажноcть воздуха, измеренная на высоте 2 м над землей.
Te - Эффективная температура - температура, которую ощущает одетый по сезону человек в тени. Характеристика душности погоды. При расчете учитывается влияние влажности воздуха и скорости ветра на теплоощущения человека.
Tes - Эффективная температура на солнце - температура, которую ощущает человек, с поправкой на солнечный нагрев. Характеристика знойности погоды. Зависит от высоты солнца над горизонтом, облачности и скорости ветра. Ночью, в пасмурную погоду, а также при ветре 12 м/с и более поправка равна нулю.
P - Атмосферное давление - приведенное к уровню моря атмосферное давление.
Po - Атмосферное давление - измеренное на уровне метеостанции атмосферное давление.
Tmin - Минимальная температура - минимум температуры воздуха на высоте 2 м над землей.
Tmax - Максимальная температура - максимум температуры воздуха на высоте 2 м над землей.
R - Количество осадков - Количество выпавших осадков за период времени, мм. При наведении курсора мыши на число - период времени, за который выпало указанное количество осадков.
R24 - Количество осадков - Количество выпавших осадков за 24 часа, мм.
S - Снежный покров - Высота снежного покрова, см. При наведении курсора мыши на число - состояние снежного покрова и степень покрытия местности в баллах.